Current Version              Previous Version:    01  02  03  04  05  06  07  08  09  10  11  12  13  14  15  16  17  18  19  20  21  22  23  24  25  26  27  28  29  30  
   31  32  33  34  35  36  37  38  39  40  41  42  43  44  45  46  47  48  49  50  51  52  53  54  55  56  57  58  59  60  

[Printable]
835
ASUS44 KEWX 271102
RWRTX
SOUTH TEXAS REGIONAL WEATHER ROUNDUP
NATIONAL WEATHER SERVICE AUSTIN/SAN ANTONIO TX
500 AM CST TUE JAN 27 2015

NOTE: "FAIR" INDICATED FEW OR NO CLOUDS BELOW 12,000 FEET WITH NO
SIGNIFICANT WEATHER AND/OR OBSTRUCTIONS TO VISIBILITY.

* - THESE STATIONS ARE NOT NWS OR FAA STATIONS...AND ARE NOT SUBJECT
    TO NWS AND FAA QUALITY CONTROL.

TXZ171-172-183>190-271200-
TEXAS HILL COUNTRY AND EDWARDS PLATEAU

CITY           SKY/WX    TMP DP  RH WIND       PRES   REMARKS
JUNCTION       CLEAR     34  31  88 CALM      30.21R
*LLANO         CLEAR     39  34  81 CALM      30.21S
BURNET         CLEAR     48  35  60 W6        30.18R WCI  45
*HORSESHOE BAY CLEAR     44  35  70 SW3       30.17R
*KERRVILLE     CLEAR     36  34  92 NW6       30.20S WCI  31
*FREDERICKSBRG CLEAR     39  33  77 CALM      30.18S
*ROCKSPRINGS   CLEAR     48  32  53 W5        30.23R WCI  46
*BOERNE STAGE  CLEAR     43  32  65 CALM      30.18S
*CASTROVILLE   CLEAR     42  36  79 NW8       30.19S WCI  37
HONDO          CLEAR     40  34  79 NW6       30.20S WCI  36
*UVALDE        CLEAR     41  37  84 CALM      30.20S
DEL RIO        CLEAR     43  40  89 NW7       30.19F WCI  39
LAUGHLIN AFB   CLEAR     44  37  78 W5        30.19S HAZE    WCI  41
CARRIZO SPRGS  PTCLDY    43  37  81 CALM      30.18S
$$

TXZ173-191>194-202-209-217>225-228-271200-
CENTRAL AND SOUTH CENTRAL TEXAS

CITY           SKY/WX    TMP DP  RH WIND       PRES   REMARKS
GEORGETOWN     CLEAR     54  36  50 W12       30.12S
AUSTIN/BERGSTM PTCLDY    40  35  83 CALM      30.14R
AUSTIN/MABRY   CLEAR     53  36  52 NW10      30.14S
*AUSTIN/EXEC   CLEAR     50  36  57 CALM      30.14R
*LAGO VISTA    CLEAR     48  37  66 W10       30.15S WCI  43
SAN MARCOS     CLEAR     48  36  61 W3        30.14F
NEW BRAUNFELS  CLEAR     44  37  76 W6        30.14F WCI  41
RANDOLPH AFB   CLEAR     48  35  60 NW6       30.16S WCI  45
PT SAN ANTONIO CLEAR     41  36  82 NW5       30.15S WCI  38
SAN ANTONIO    MOCLDY    44  37  76 NW6       30.17S WCI  41
STINSON FIELD  CLEAR     42  38  85 CALM      30.16S
*PLEASANTON    CLEAR     45  37  74 W3        30.18S
*LA GRANGE     CLEAR     50  41  72 W3        30.12S
*GIDDINGS      NOT AVBL
*GONZALES      CLEAR     47  40  78 CALM      30.15S
$$

TXZ163>164-176>182-195>201-210>213-226-227-235-271200-
SOUTHEAST TEXAS

CITY           SKY/WX    TMP DP  RH WIND       PRES   REMARKS
COLLEGE STN    CLEAR     45  38  76 SW5       30.11S WCI  43
*BRYAN         CLEAR     50  39  66 SW6       30.11S WCI  48
*CALDWELL      CLEAR     50  37  62 SW6       30.14S WCI  48
*CROCKETT      CLEAR     43  39  87 CALM      30.11S
*BRENHAM       CLEAR     54  40  59 CALM      30.12F
HUNTSVILLE     PTCLDY    53  39  59 SW8       30.08F
CONROE         PTCLDY    40  37  89 CALM      30.10F
HOUSTON BUSH   PTCLDY    49  41  74 SW6       30.11S WCI  46
HOUSTON HOBBY  PTCLDY    50  43  77 W6        30.11F WCI  48
*HOUSTON SW AP CLEAR     50  42  74 SW5       30.13S WCI  49
PEARLAND       CLEAR     50  42  74 VRB3      30.13F
HOUSTON HOOKS  CLEAR     47  40  76 SW5       30.11S WCI  45
ELLINGTON FLD  PTCLDY    50  43  76 W5        30.14R WCI  48
SUGAR LAND     CLEAR     49  40  71 W6        30.12S WCI  46
*HOUSTON EXEC    N/A    N/A N/A N/A MISG        N/A
*CLEVELAND MUN NOT AVBL
*WHARTON       PTCLDY    49  42  78 SW7       30.14F WCI  45
*COLUMBUS      FAIR      47  40  75 W5        30.12F WCI  45
$$

TXZ214>216-236>238-271200-
THE UPPER TEXAS COAST

CITY           SKY/WX    TMP DP  RH WIND       PRES   REMARKS
*ORANGE        PTCLDY    50  44  79 CALM      30.10S
PORT ARTHUR    PTCLDY    46  43  89 W5        30.09S WCI  44
GALVESTON      CLEAR     51  44  77 W5        30.12F
ANGLETON       CLEAR     51  40  65 SW3       30.13F
*BAY CITY      PTCLDY    48  43  82 W3        30.14S
PALACIOS       PTCLDY    49  42  77 SW6       30.15S WCI  46
$$

TXZ229>234-239>247-271200-
TEXAS COASTAL BEND AND RIO GRANDE PLAINS

CITY           SKY/WX    TMP DP  RH WIND       PRES   REMARKS
VICTORIA       PTCLDY    49  40  71 W6        30.16S WCI  46
*BEEVILLE      PTCLDY    51  40  67 W8        30.17R
ROCKPORT       CLEAR     53  42  66 SW6       30.16F
*PORT ARANSAS  PTCLDY    55  45  71 W6        30.17S
*PORT LAVACA   PTCLDY    47  42  83 SW7       30.15F WCI  44
*INGLESIDE     CLEAR     57  42  56 W9        30.16F
CORPUS CHRISTI PTCLDY    46  41  82 W6        30.17F WCI  43
CORPUS NAS     CLEAR     51  43  74 SW8       30.17S
*ROBSTOWN      NOT AVBL
ALICE          PTCLDY    49  39  68 W6        30.17F WCI  46
KINGSVILLE NAS PTCLDY    50  42  74 W6        30.18S WCI  48
COTULLA        PTCLDY    47  41  80 NW5       30.19S WCI  45
*FAITH RANCH   PTCLDY    50  41  71 N3        30.19S
LAREDO         NOT AVBL
$$

TXZ248>255-271200-
DEEP SOUTH TEXAS

CITY           SKY/WX    TMP DP  RH WIND       PRES   REMARKS
BROWNSVILLE    PTCLDY    53  49  86 W5        30.19F
PORT ISABEL    PTCLDY    50  47  89 SW5       30.19S WCI  48
*SOUTH PADRE   PTCLDY   N/A N/A N/A NW5       30.19S
HARLINGEN      PTCLDY    52  46  80 S7        30.18F
*HEBBRONVILLE  MOCLDY    57  39  51 SW7       30.19S
MCALLEN        MOCLDY    52  46  80 SE5       30.18F
*WESLACO       PTCLDY    53  43  67 S5        30.18F
FALFURRIAS     PTCLDY    47  40  74 CALM      30.18S
EDINBURG       PTCLDY    51  43  72 CALM      30.19S
*ZAPATA        PTCLDY    49  42  74 CALM      30.18S
$$

TXZ213>215-236>238-242>244-246-247-251-254-255-271200-
CMAN STATIONS

STATION/POSITION TIME  TEMP    WIND        PRES    WAVE
                       AIR SEA DIR/SP/G            HT/PER
                 (UTC) (F)     (DEG/KT/KT) (MB)    (FT/S)
SABINE PASS      1000   51 53  260/  6/  9 1019.0
SEA RIM ST PARK  1000   48     250/  7/  8 1019.8
NORTH JETTY/GLS  1000   55 56  280/ 16/ 18   N/A
EAGLE POINT      1000   54 55  270/  8/ 10 1019.5
MORGANS POINT    1000   54     260/  9/ 13 1019.3
MISSION/ARANSAS  1000   55     VRB  7      1022.0
PORT O`CONNOR    1000          240/ 11/ 12   N/A
PORT ARANSAS     1000   57 57  240/ 10/ 12 1022.1
MALAQUITE BEACH  1000   54 60  250/  8/  9 1021.2
BAFFIN BAY       1000   56     250/  8/  9 1021.9
PORT ISABEL      1000   55 57  210/  3/  5 1022.4
$$

GMZ080-GMZ150>470-271200-
OFFSHORE BUOY REPORTS

STATION/POSITION TIME  TEMP    WIND        PRES    WAVE
                       AIR SEA DIR/SP/G            HT/PER
                 (UTC) (F)     (DEG/KT/KT) (MB)    (FT/S)
20 E GALVESTON   1100   58 55  250/ 12/ 14 1019.2    1/ 3
90 E PT ARANSAS  1100   68 68  270/ 14/ 16 1021.1    2/ 4
35 NE PT MANSFLD 1100   65 68  240/ 14/ 17 1021.4    2/ 3
200 E PT ISABEL  1100   69 72  310/ 12/ 14 1021.0    3/ 5
$$